Terug naar catalogus

METEOR 2-17 DEB

ActiefPO
NORAD 31399·DEBRIS·🇷🇺 Russia

Gelanceerd Jan 30, 1988 vanaf Plesetsk Cosmodrome

Loading…

Volgende Passages (komende 24 uur)

TLE

VerouderendSource: Space-Track

Epoch: Sep 8, 2026, 11:00 UTC

1 31399U 88005U   26251.45883201  .00002686  00000-0  16074-2 0  9995
2 31399  82.5157 154.0024 0009032 329.2020  30.8621 14.06759791 91114

Volg METEOR 2-17 DEB in realtime met AllMySat

Download on the App Store